User: anonymous   Login
Location: Durham
(54.7770°N, 1.5720°W)
Time: 17:33:53
(UTC+01:00)
Language:

ISS - Orbit

View from above orbital plane
View from above orbital plane
View from above satellite
View from above satellite

Ground track
Ground track

The orbit data is extracted from the following two-line orbital elements,

1 25544U 98067A   15183.56564479  .00006121  00000-0  94949-4 0  9993
2 25544 051.6458 007.2280 0003264 118.0576 282.6751 15.55476294950433
Epoch (UTC): 02 July 2015 13:34:31
Eccentricity: 0.0003264
inclination: 51.6458°
perigee height: 398 km
apogee height: 403 km
right ascension of ascending node: 7.2280°
argument of perigee: 118.0576°
revolutions per day: 15.55476294
mean anomaly at epoch: 282.6751°
orbit number at epoch: 95043

The dashed part of the orbit path shows where the satellite is in the earth's shadow,  

DLR